Location: Bad Dürkheim
(49.4618°N, 8.1724°E)
Time: 21:26:34
(UTC+00:00)

Cosmos 2251 Rocket - Pass Details

Date: 14 June 2025
Orbit: 761 x 788 km, 74.0° (Epoch: 16 July)

Event Time Altitude Azimuth Distance (km) Brightness Sun altitude
Exits shadow 22:59:04 27° 195° (SSW) 1,483 4.4 -16.9°
Maximum altitude 23:02:05 80° 111° (ESE) 802 3.5 -17.0°
Drops below altitude 10° 23:07:28 10° 25° (NNE) 2,359 6.9 -17.1°
Sets 23:09:52 0° 25° (NNE) 3,294 7.9 -17.1°
